| time (UTC) | temp F | wind direction | speed MPH | gust MPH | rain 1hr in | rain 24hr in | rain mn in | humidity % | barometer mb |
| 20260905034134 | 76 | 36 | 0.0 | 0.0 | 0.00 | 0.10 | 0.10 | 68 | 1006.6 |
| 20260905033624 | 76 | 36 | 0.0 | 0.0 | 0.00 | 0.10 | 0.10 | 67 | 1006.4 |
| 20260905033133 | 77 | 36 | 0.0 | 0.0 | 0.00 | 0.10 | 0.10 | 66 | 1006.3 |
| 20260905032632 | 77 | 36 | 0.0 | 0.0 | 0.00 | 0.10 | 0.10 | 66 | 1006.3 |
| 20260905032126 | 77 | 36 | 0.0 | 0.0 | 0.00 | 0.10 | 0.10 | 65 | 1006.3 |
| 20260905031638 | 78 | 36 | 0.0 | 1.0 | 0.00 | 0.10 | 0.10 | 65 | 1006.2 |
| 20260905031131 | 77 | 36 | 0.0 | 1.0 | 0.00 | 0.10 | 0.10 | 65 | 1006.1 |
| 20260905030628 | 78 | 40 | 0.0 | 0.0 | 0.00 | 0.10 | 0.10 | 66 | 1006.1 |
| 20260905030124 | 78 | 40 | 0.0 | 0.0 | 0.00 | 0.10 | 0.10 | 66 | 1006.1 |
| 20260905025638 | 78 | 39 | 0.0 | 0.0 | 0.00 | 0.10 | 0.10 | 65 | 1006.0 |
| 20260905025132 | 79 | 40 | 0.0 | 0.0 | 0.00 | 0.10 | 0.10 | 64 | 1006.0 |
| 20260905024626 | 79 | 40 | 0.0 | 0.0 | 0.00 | 0.10 | 0.10 | 63 | 1005.9 |
| 20260905024132 | 79 | 40 | 0.0 | 1.0 | 0.00 | 0.10 | 0.10 | 63 | 1005.9 |
| 20260905023629 | 79 | 40 | 0.0 | 2.0 | 0.00 | 0.10 | 0.10 | 62 | 1005.8 |
| 20260905023138 | 79 | 40 | 0.0 | 2.0 | 0.00 | 0.10 | 0.10 | 62 | 1005.8 |
| 20260905022636 | 79 | 94 | 0.0 | 2.0 | 0.00 | 0.10 | 0.10 | 62 | 1005.8 |
| 20260905022132 | 80 | 8 | 0.0 | 2.0 | 0.00 | 0.10 | 0.10 | 61 | 1005.7 |
| 20260905021626 | 80 | 29 | 0.0 | 3.0 | 0.00 | 0.10 | 0.10 | 60 | 1005.7 |
| 20260905021121 | 80 | 316 | 0.0 | 3.0 | 0.00 | 0.10 | 0.10 | 60 | 1005.7 |
| 20260905020634 | 80 | 51 | 1.0 | 3.0 | 0.00 | 0.10 | 0.10 | 59 | 1005.7 |
| 20260905020128 | 80 | 84 | 0.0 | 4.0 | 0.00 | 0.10 | 0.10 | 58 | 1005.7 |
| 20260905015623 | 80 | 40 | 0.0 | 4.0 | 0.00 | 0.10 | 0.10 | 58 | 1005.6 |
| 20260905015135 | 80 | 290 | 0.0 | 4.0 | 0.00 | 0.10 | 0.10 | 58 | 1005.5 |
| 20260905014630 | 80 | 36 | 0.0 | 2.0 | 0.00 | 0.10 | 0.10 | 58 | 1005.4 |
| 20260905014126 | 80 | 333 | 0.0 | 1.0 | 0.00 | 0.10 | 0.10 | 58 | 1005.3 |
| 20260905013624 | 80 | 16 | 0.0 | 1.0 | 0.00 | 0.10 | 0.10 | 58 | 1005.2 |
| 20260905013134 | 80 | 36 | 0.0 | 1.0 | 0.00 | 0.10 | 0.10 | 57 | 1005.3 |
| 20260905012631 | 81 | 36 | 0.0 | 1.0 | 0.00 | 0.10 | 0.10 | 56 | 1005.2 |
| 20260905012125 | 81 | 37 | 0.0 | 1.0 | 0.00 | 0.10 | 0.10 | 56 | 1005.2 |
| 20260905011636 | 81 | 37 | 0.0 | 3.0 | 0.00 | 0.10 | 0.10 | 55 | 1005.1 |
| 20260905011133 | 82 | 25 | 0.0 | 5.0 | 0.00 | 0.10 | 0.10 | 54 | 1005.1 |
| 20260905010626 | 82 | 22 | 1.0 | 5.0 | 0.00 | 0.10 | 0.10 | 53 | 1005.0 |
| 20260905010123 | 83 | 44 | 0.0 | 5.0 | 0.00 | 0.10 | 0.10 | 52 | 1004.9 |
| 20260905005634 | 83 | 29 | 1.0 | 5.0 | 0.00 | 0.10 | 0.10 | 51 | 1004.9 |
| 20260905005130 | 83 | 12 | 0.0 | 6.0 | 0.00 | 0.10 | 0.10 | 51 | 1004.7 |
| 20260905004626 | 83 | 61 | 1.0 | 7.0 | 0.00 | 0.10 | 0.10 | 51 | 1004.6 |
| 20260905004122 | 83 | 60 | 0.0 | 4.0 | 0.00 | 0.10 | 0.10 | 51 | 1004.6 |
| 20260905003632 | 84 | 4 | 1.0 | 5.0 | 0.00 | 0.10 | 0.10 | 50 | 1004.6 |
| 20260905003127 | 84 | 30 | 0.0 | 4.0 | 0.00 | 0.10 | 0.10 | 49 | 1004.7 |
| 20260905002624 | 85 | 63 | 1.0 | 7.0 | 0.00 | 0.10 | 0.10 | 49 | 1004.7 |
| 20260905002134 | 85 | 42 | 1.0 | 7.0 | 0.00 | 0.10 | 0.10 | 47 | 1004.7 |
| 20260905001630 | 86 | 53 | 1.0 | 7.0 | 0.00 | 0.10 | 0.10 | 46 | 1004.6 |
| 20260905001128 | 86 | 27 | 2.0 | 7.0 | 0.00 | 0.10 | 0.10 | 46 | 1004.4 |
| 20260905000623 | 87 | 315 | 1.0 | 6.0 | 0.00 | 0.10 | 0.10 | 47 | 1004.3 |
| 20260905000134 | 87 | 47 | 1.0 | 6.0 | 0.00 | 0.10 | 0.10 | 46 | 1004.3 |
| 20260904235631 | 87 | 59 | 0.0 | 3.0 | 0.00 | 0.10 | 0.10 | 46 | 1004.3 |
| 20260904235125 | 88 | 264 | 0.0 | 3.0 | 0.00 | 0.10 | 0.10 | 48 | 1004.2 |
| 20260904234634 | 90 | 114 | 0.0 | 2.0 | 0.00 | 0.10 | 0.10 | 46 | 1004.2 |
| 20260904234133 | 90 | 114 | 0.0 | 3.0 | 0.00 | 0.10 | 0.10 | 41 | 1004.1 |
| 20260904233626 | 90 | 115 | 0.0 | 3.0 | 0.00 | 0.10 | 0.10 | 41 | 1004.0 |
| 20260904233123 | 90 | 110 | 0.0 | 3.0 | 0.00 | 0.10 | 0.10 | 40 | 1004.0 |
| 20260904232637 | 90 | 116 | 0.0 | 3.0 | 0.00 | 0.10 | 0.10 | 41 | 1004.0 |
| 20260904232129 | 90 | 114 | 0.0 | 3.0 | 0.00 | 0.10 | 0.10 | 41 | 1004.0 |
| 20260904231627 | 90 | 121 | 0.0 | 3.0 | 0.00 | 0.10 | 0.10 | 41 | 1004.0 |
| 20260904231139 | 89 | 119 | 0.0 | 2.0 | 0.00 | 0.10 | 0.10 | 43 | 1004.1 |
| 20260904230629 | 90 | 113 | 0.0 | 2.0 | 0.00 | 0.10 | 0.10 | 46 | 1004.1 |
| 20260904230123 | 90 | 85 | 0.0 | 2.0 | 0.00 | 0.10 | 0.10 | 43 | 1004.0 |
| 20260904225633 | 89 | 134 | 0.0 | 3.0 | 0.00 | 0.10 | 0.10 | 44 | 1004.1 |
| 20260904225130 | 88 | 92 | 0.0 | 1.0 | 0.00 | 0.10 | 0.10 | 49 | 1004.1 |
| 20260904224624 | 88 | 173 | 0.0 | 0.0 | 0.00 | 0.10 | 0.10 | 48 | 1004.1 |
| 20260904224136 | 89 | 173 | 0.0 | 1.0 | 0.00 | 0.10 | 0.10 | 47 | 1004.1 |
| 20260904223630 | 90 | 172 | 0.0 | 3.0 | 0.00 | 0.10 | 0.10 | 43 | 1004.0 |
| 20260904223126 | 90 | 104 | 0.0 | 3.0 | 0.00 | 0.10 | 0.10 | 41 | 1004.1 |
| 20260904222621 | 91 | 146 | 0.0 | 2.0 | 0.00 | 0.10 | 0.10 | 41 | 1004.1 |
| 20260904222135 | 92 | 158 | 0.0 | 2.0 | 0.00 | 0.10 | 0.10 | 43 | 1004.2 |
| 20260904221629 | 92 | 111 | 0.0 | 3.0 | 0.00 | 0.10 | 0.10 | 39 | 1004.3 |
| 20260904221125 | 93 | 110 | 0.0 | 3.0 | 0.00 | 0.10 | 0.10 | 36 | 1004.3 |
| 20260904220637 | 93 | 222 | 0.0 | 1.0 | 0.00 | 0.10 | 0.10 | 39 | 1004.4 |
| 20260904220132 | 92 | 270 | 0.0 | 1.0 | 0.00 | 0.10 | 0.10 | 43 | 1004.4 |
| 20260904215627 | 91 | 269 | 0.0 | 1.0 | 0.00 | 0.10 | 0.10 | 44 | 1004.5 |
| 20260904215123 | 92 | 255 | 0.0 | 1.0 | 0.00 | 0.10 | 0.10 | 42 | 1004.6 |
| 20260904214635 | 93 | 280 | 0.0 | 3.0 | 0.00 | 0.10 | 0.10 | 40 | 1004.5 |
| 20260904214129 | 94 | 104 | 1.0 | 3.0 | 0.00 | 0.10 | 0.10 | 36 | 1004.6 |
| 20260904213625 | 94 | 207 | 0.0 | 5.0 | 0.00 | 0.10 | 0.10 | 38 | 1004.7 |
| 20260904213122 | 93 | 231 | 0.0 | 5.0 | 0.00 | 0.10 | 0.10 | 38 | 1004.7 |
| 20260904212632 | 93 | 143 | 0.0 | 4.0 | 0.00 | 0.10 | 0.10 | 39 | 1004.8 |
| 20260904212129 | 92 | 150 | 0.0 | 6.0 | 0.00 | 0.10 | 0.10 | 40 | 1004.9 |
| 20260904211624 | 92 | 104 | 1.0 | 6.0 | 0.00 | 0.10 | 0.10 | 40 | 1004.8 |
| 20260904211134 | 93 | 118 | 1.0 | 4.0 | 0.00 | 0.10 | 0.10 | 40 | 1005.0 |
| 20260904210633 | 93 | 156 | 2.0 | 5.0 | 0.00 | 0.10 | 0.10 | 39 | 1005.0 |
| 20260904210126 | 93 | 145 | 2.0 | 5.0 | 0.00 | 0.10 | 0.10 | 38 | 1005.2 |
| 20260904205623 | 94 | 227 | 0.0 | 2.0 | 0.00 | 0.10 | 0.10 | 40 | 1005.2 |
| 20260904205134 | 93 | 211 | 0.0 | 2.0 | 0.00 | 0.10 | 0.10 | 38 | 1005.2 |
| 20260904204627 | 93 | 122 | 0.0 | 5.0 | 0.00 | 0.10 | 0.10 | 41 | 1005.3 |
| 20260904204126 | 93 | 111 | 1.0 | 4.0 | 0.00 | 0.10 | 0.10 | 41 | 1005.4 |
| 20260904203637 | 93 | 143 | 0.0 | 6.0 | 0.00 | 0.10 | 0.10 | 40 | 1005.5 |
| 20260904203130 | 92 | 147 | 1.0 | 6.0 | 0.00 | 0.10 | 0.10 | 43 | 1005.7 |
| 20260904202627 | 91 | 218 | 0.0 | 4.0 | 0.00 | 0.10 | 0.10 | 43 | 1005.7 |
| 20260904202122 | 91 | 193 | 1.0 | 5.0 | 0.00 | 0.10 | 0.10 | 44 | 1005.8 |
| 20260904201632 | 90 | 180 | 0.0 | 5.0 | 0.00 | 0.10 | 0.10 | 43 | 1005.9 |
| 20260904201129 | 91 | 65 | 0.0 | 3.0 | 0.00 | 0.10 | 0.10 | 44 | 1005.9 |
| 20260904200627 | 91 | 129 | 0.0 | 3.0 | 0.00 | 0.10 | 0.10 | 44 | 1006.1 |
| 20260904200135 | 91 | 119 | 1.0 | 3.0 | 0.00 | 0.10 | 0.10 | 45 | 1006.1 |
| 20260904195629 | 90 | 232 | 0.0 | 3.0 | 0.00 | 0.10 | 0.10 | 45 | 1006.1 |
| 20260904195128 | 90 | 143 | 0.0 | 7.0 | 0.00 | 0.10 | 0.10 | 46 | 1006.2 |
| 20260904194622 | 90 | 103 | 1.0 | 4.0 | 0.00 | 0.10 | 0.10 | 47 | 1006.3 |
| 20260904194035 | 90 | 102 | 1.0 | 6.0 | 0.00 | 0.10 | 0.10 | 46 | 1006.4 |
| 20260904193531 | 90 | 163 | 1.0 | 5.0 | 0.00 | 0.10 | 0.10 | 48 | 1006.6 |
| 20260904193023 | 90 | 190 | 1.0 | 5.0 | 0.00 | 0.10 | 0.10 | 48 | 1006.5 |
| 20260904192535 | 89 | 129 | 0.0 | 2.0 | 0.00 | 0.10 | 0.10 | 49 | 1006.6 |
| 20260904192031 | 88 | 300 | 0.0 | 1.0 | 0.00 | 0.10 | 0.10 | 51 | 1006.7 |
| 20260904191536 | 87 | 47 | 0.0 | 2.0 | 0.00 | 0.10 | 0.10 | 50 | 1006.8 |
| 20260904191035 | 88 | 222 | 0.0 | 2.0 | 0.00 | 0.10 | 0.10 | 50 | 1006.9 |
| 20260904190530 | 88 | 133 | 0.0 | 2.0 | 0.00 | 0.10 | 0.10 | 52 | 1007.0 |
| 20260904190025 | 87 | 124 | 0.0 | 3.0 | 0.00 | 0.10 | 0.10 | 55 | 1007.1 |
| 20260904185522 | 86 | 134 | 1.0 | 4.0 | 0.00 | 0.10 | 0.10 | 53 | 1007.2 |
| 20260904185032 | 86 | 129 | 0.0 | 4.0 | 0.00 | 0.10 | 0.10 | 55 | 1007.3 |
| 20260904184528 | 85 | 101 | 0.0 | 4.0 | 0.00 | 0.10 | 0.10 | 57 | 1007.5 |
| 20260904184024 | 86 | 110 | 1.0 | 4.0 | 0.00 | 0.10 | 0.10 | 56 | 1007.6 |
| 20260904183535 | 86 | 100 | 0.0 | 3.0 | 0.00 | 0.10 | 0.10 | 58 | 1007.7 |
| 20260904183037 | 85 | 127 | 0.0 | 1.0 | 0.00 | 0.10 | 0.10 | 60 | 1007.8 |
| 20260904182531 | 84 | 262 | 0.0 | 1.0 | 0.00 | 0.10 | 0.10 | 61 | 1007.9 |
| 20260904182037 | 83 | 135 | 0.0 | 4.0 | 0.00 | 0.10 | 0.10 | 64 | 1008.1 |
| 20260904181531 | 82 | 114 | 0.0 | 4.0 | 0.00 | 0.10 | 0.10 | 63 | 1008.2 |
| 20260904181034 | 83 | 112 | 0.0 | 4.0 | 0.00 | 0.10 | 0.10 | 63 | 1008.3 |
| 20260904180529 | 83 | 114 | 0.0 | 4.0 | 0.00 | 0.10 | 0.10 | 64 | 1008.3 |
| 20260904180024 | 83 | 121 | 0.0 | 1.0 | 0.00 | 0.10 | 0.10 | 64 | 1008.4 |
| 20260904175535 | 83 | 118 | 0.0 | 2.0 | 0.00 | 0.10 | 0.10 | 66 | 1008.4 |
| 20260904175030 | 83 | 160 | 0.0 | 2.0 | 0.00 | 0.10 | 0.10 | 68 | 1008.5 |
| 20260904174554 | 82 | 128 | 0.0 | 3.0 | 0.00 | 0.10 | 0.10 | 72 | 1008.6 |
| 20260904174022 | 81 | 113 | 0.0 | 4.0 | 0.00 | 0.10 | 0.10 | 73 | 1008.7 |
| 20260904173533 | 81 | 215 | 0.0 | 4.0 | 0.00 | 0.10 | 0.10 | 73 | 1008.8 |
| 20260904173028 | 81 | 160 | 1.0 | 3.0 | 0.00 | 0.10 | 0.10 | 74 | 1008.8 |
| 20260904172528 | 81 | 345 | 0.0 | 1.0 | 0.00 | 0.10 | 0.10 | 78 | 1008.9 |
| 20260904172034 | 79 | 119 | 0.0 | 3.0 | 0.00 | 0.10 | 0.10 | 79 | 1008.9 |
| 20260904171535 | 79 | 108 | 1.0 | 3.0 | 0.00 | 0.10 | 0.10 | 78 | 1009.0 |
| 20260904171033 | 79 | 110 | 0.0 | 2.0 | 0.00 | 0.10 | 0.10 | 79 | 1009.1 |
| 20260904170524 | 78 | 26 | 0.0 | 2.0 | 0.00 | 0.10 | 0.10 | 80 | 1009.1 |
| 20260904170036 | 78 | 153 | 0.0 | 3.0 | 0.00 | 0.10 | 0.10 | 81 | 1009.2 |
| 20260904165530 | 77 | 160 | 0.0 | 2.0 | 0.00 | 0.10 | 0.10 | 83 | 1009.2 |
| 20260904165028 | 77 | 280 | 0.0 | 2.0 | 0.00 | 0.10 | 0.10 | 84 | 1009.3 |
| 20260904164522 | 76 | 160 | 0.0 | 1.0 | 0.00 | 0.10 | 0.10 | 83 | 1009.3 |
| 20260904164031 | 75 | 72 | 0.0 | 2.0 | 0.00 | 0.10 | 0.10 | 82 | 1009.4 |
| 20260904163548 | 75 | 162 | 0.0 | 2.0 | 0.00 | 0.10 | 0.10 | 75 | 1009.4 |
| 20260904163138 | 75 | 122 | 0.0 | 2.0 | 0.00 | 0.10 | 0.10 | 71 | 1009.5 |
| 20260904162625 | 74 | 166 | 0.0 | 2.0 | 0.00 | 0.10 | 0.10 | 66 | 1009.4 |
| 20260904162134 | 74 | 200 | 0.0 | 2.0 | 0.00 | 0.10 | 0.10 | 62 | 1009.6 |
| 20260904161528 | 73 | 107 | 0.0 | 2.0 | 0.00 | 0.10 | 0.10 | 60 | 1009.5 |
| 20260904161026 | 73 | 156 | 0.0 | 2.0 | 0.00 | 0.10 | 0.10 | 60 | 1009.5 |
| 20260904160534 | 72 | 253 | 0.0 | 2.0 | 0.00 | 0.10 | 0.10 | 59 | 1009.5 |
| 20260904160029 | 72 | 108 | 0.0 | 2.0 | 0.00 | 0.10 | 0.10 | 59 | 1009.5 |
| 20260904155523 | 71 | 218 | 0.0 | 2.0 | 0.00 | 0.10 | 0.10 | 60 | 1009.5 |
| 20260904155035 | 71 | 114 | 0.0 | 2.0 | 0.00 | 0.10 | 0.10 | 60 | 1009.4 |
| 20260904154533 | 71 | 155 | 0.0 | 2.0 | 0.00 | 0.10 | 0.10 | 59 | 1009.6 |
| 20260904154027 | 71 | 141 | 0.0 | 1.0 | 0.00 | 0.10 | 0.10 | 59 | 1009.4 |
| 20260904153524 | 70 | 162 | 0.0 | 1.0 | 0.00 | 0.10 | 0.10 | 60 | 1009.4 |
| 20260904153043 | 70 | 190 | 0.0 | 1.0 | 0.00 | 0.10 | 0.10 | 59 | 1009.4 |
| 20260904152534 | 70 | 204 | 0.0 | 1.0 | 0.00 | 0.10 | 0.10 | 59 | 1009.4 |
| 20260904152027 | 70 | 204 | 0.0 | 1.0 | 0.00 | 0.10 | 0.10 | 59 | 1009.4 |
| 20260904151526 | 70 | 212 | 0.0 | 0.0 | 0.00 | 0.10 | 0.10 | 59 | 1009.3 |
| 20260904151040 | 70 | 205 | 0.0 | 0.0 | 0.00 | 0.10 | 0.10 | 59 | 1009.3 |
| 20260904150531 | 70 | 207 | 0.0 | 0.0 | 0.00 | 0.10 | 0.10 | 59 | 1009.3 |
| 20260904150026 | 70 | 210 | 0.0 | 1.0 | 0.00 | 0.10 | 0.10 | 59 | 1009.3 |
| 20260904145534 | 70 | 210 | 0.0 | 1.0 | 0.00 | 0.10 | 0.10 | 59 | 1009.3 |
| 20260904145028 | 70 | 122 | 0.0 | 0.0 | 0.00 | 0.10 | 0.10 | 59 | 1009.3 |
| 20260904144522 | 70 | 123 | 0.0 | 0.0 | 0.00 | 0.10 | 0.10 | 58 | 1009.4 |
| 20260904144030 | 70 | 122 | 0.0 | 0.0 | 0.00 | 0.10 | 0.10 | 59 | 1009.3 |
| 20260904143631 | 70 | 123 | 0.0 | 0.0 | 0.00 | 0.10 | 0.10 | 59 | 1009.2 |
| 20260904143127 | 70 | 123 | 0.0 | 0.0 | 0.00 | 0.10 | 0.10 | 59 | 1009.2 |
| 20260904142624 | 70 | 123 | 0.0 | 0.0 | 0.00 | 0.10 | 0.10 | 59 | 1009.2 |
| 20260904142135 | 70 | 123 | 0.0 | 0.0 | 0.00 | 0.10 | 0.10 | 59 | 1009.2 |
| 20260904141630 | 70 | 123 | 0.0 | 0.0 | 0.00 | 0.10 | 0.10 | 59 | 1009.2 |
| 20260904141124 | 70 | 123 | 0.0 | 0.0 | 0.00 | 0.10 | 0.10 | 59 | 1009.2 |
| 20260904140620 | 70 | 123 | 0.0 | 0.0 | 0.00 | 0.10 | 0.10 | 58 | 1009.1 |
| 20260904140132 | 70 | 123 | 0.0 | 0.0 | 0.00 | 0.10 | 0.10 | 58 | 1009.2 |
| 20260904135628 | 70 | 123 | 0.0 | 0.0 | 0.00 | 0.10 | 0.10 | 59 | 1009.0 |
| 20260904135124 | 70 | 122 | 0.0 | 0.0 | 0.00 | 0.10 | 0.10 | 59 | 1008.9 |
| 20260904134635 | 69 | 122 | 0.0 | 1.0 | 0.00 | 0.10 | 0.10 | 59 | 1008.9 |
| 20260904134129 | 69 | 123 | 0.0 | 1.0 | 0.00 | 0.10 | 0.10 | 59 | 1008.9 |
| 20260904133136 | 69 | 123 | 0.0 | 0.0 | 0.00 | 0.10 | 0.10 | 59 | 1008.8 |
| 20260904132534 | 69 | 123 | 0.0 | 0.0 | 0.00 | 0.10 | 0.10 | 59 | 1008.7 |
| 20260904132030 | 69 | 123 | 0.0 | 0.0 | 0.00 | 0.10 | 0.10 | 59 | 1008.6 |
| 20260904131531 | 69 | 123 | 0.0 | 0.0 | 0.00 | 0.10 | 0.10 | 59 | 1008.6 |
| 20260904131022 | 69 | 123 | 0.0 | 0.0 | 0.00 | 0.10 | 0.10 | 60 | 1008.5 |
| 20260904130532 | 69 | 123 | 0.0 | 0.0 | 0.00 | 0.10 | 0.10 | 60 | 1008.4 |
| 20260904130027 | 69 | 122 | 0.0 | 0.0 | 0.00 | 0.10 | 0.10 | 60 | 1008.3 |
| 20260904125523 | 69 | 123 | 0.0 | 0.0 | 0.01 | 0.10 | 0.10 | 60 | 1008.3 |
| 20260904125034 | 69 | 122 | 0.0 | 0.0 | 0.01 | 0.10 | 0.10 | 60 | 1008.2 |
| 20260904124531 | 69 | 123 | 0.0 | 0.0 | 0.02 | 0.10 | 0.10 | 61 | 1008.3 |
| 20260904124025 | 69 | 123 | 0.0 | 0.0 | 0.03 | 0.10 | 0.10 | 61 | 1008.2 |
| 20260904123535 | 69 | 122 | 0.0 | 0.0 | 0.04 | 0.10 | 0.10 | 61 | 1008.2 |
| 20260904123030 | 69 | 123 | 0.0 | 0.0 | 0.04 | 0.10 | 0.10 | 61 | 1008.1 |
| 20260904122525 | 69 | 123 | 0.0 | 0.0 | 0.04 | 0.10 | 0.10 | 61 | 1008.0 |
| 20260904122022 | 69 | 123 | 0.0 | 0.0 | 0.05 | 0.10 | 0.10 | 62 | 1008.0 |
| 20260904121533 | 69 | 123 | 0.0 | 0.0 | 0.05 | 0.10 | 0.10 | 62 | 1008.0 |
| 20260904121034 | 69 | 123 | 0.0 | 0.0 | 0.05 | 0.10 | 0.10 | 62 | 1008.0 |
| 20260904120523 | 69 | 123 | 0.0 | 0.0 | 0.05 | 0.10 | 0.10 | 63 | 1008.0 |
| 20260904120036 | 69 | 123 | 0.0 | 0.0 | 0.06 | 0.10 | 0.10 | 64 | 1008.0 |
| 20260904115529 | 69 | 123 | 0.0 | 0.0 | 0.05 | 0.09 | 0.09 | 65 | 1008.0 |
| 20260904115026 | 69 | 123 | 0.0 | 0.0 | 0.05 | 0.09 | 0.09 | 66 | 1007.9 |
| 20260904114520 | 69 | 122 | 0.0 | 0.0 | 0.04 | 0.08 | 0.08 | 67 | 1007.9 |
| 20260904114030 | 69 | 123 | 0.0 | 0.0 | 0.03 | 0.07 | 0.07 | 67 | 1007.8 |
| 20260904113527 | 69 | 123 | 0.0 | 0.0 | 0.02 | 0.06 | 0.06 | 68 | 1007.8 |
| 20260904113022 | 69 | 123 | 0.0 | 0.0 | 0.02 | 0.06 | 0.06 | 69 | 1007.8 |
| 20260904112533 | 69 | 122 | 0.0 | 0.0 | 0.02 | 0.06 | 0.06 | 70 | 1007.7 |
| 20260904112033 | 69 | 122 | 0.0 | 0.0 | 0.01 | 0.05 | 0.05 | 71 | 1007.9 |
| 20260904111627 | 69 | 123 | 0.0 | 0.0 | 0.01 | 0.05 | 0.05 | 71 | 1007.9 |
| 20260904111021 | 69 | 123 | 0.0 | 0.0 | 0.01 | 0.05 | 0.05 | 72 | 1007.9 |
| 20260904110532 | 69 | 123 | 0.0 | 0.0 | 0.02 | 0.05 | 0.05 | 73 | 1007.9 |
| 20260904110037 | 69 | 122 | 0.0 | 1.0 | 0.02 | 0.04 | 0.04 | 75 | 1007.9 |
| 20260904105522 | 69 | 122 | 0.0 | 1.0 | 0.03 | 0.04 | 0.04 | 75 | 1007.9 |
| 20260904105035 | 69 | 123 | 0.0 | 1.0 | 0.03 | 0.04 | 0.04 | 76 | 1008.0 |
| 20260904104527 | 69 | 123 | 0.0 | 1.0 | 0.04 | 0.04 | 0.04 | 76 | 1007.9 |
| 20260904104020 | 69 | 123 | 0.0 | 0.0 | 0.04 | 0.04 | 0.04 | 78 | 1007.7 |
| 20260904103532 | 68 | 123 | 0.0 | 1.0 | 0.04 | 0.04 | 0.04 | 79 | 1007.6 |
| 20260904103030 | 68 | 123 | 0.0 | 1.0 | 0.04 | 0.04 | 0.04 | 80 | 1007.5 |
| 20260904102523 | 69 | 123 | 0.0 | 0.0 | 0.04 | 0.04 | 0.04 | 81 | 1007.5 |
| 20260904102033 | 69 | 123 | 0.0 | 0.0 | 0.04 | 0.04 | 0.04 | 81 | 1007.4 |
| 20260904101530 | 69 | 122 | 0.0 | 0.0 | 0.04 | 0.04 | 0.04 | 82 | 1007.3 |
| 20260904101025 | 69 | 123 | 0.0 | 0.0 | 0.04 | 0.04 | 0.04 | 81 | 1007.4 |
| 20260904100522 | 69 | 123 | 0.0 | 0.0 | 0.03 | 0.03 | 0.03 | 80 | 1007.4 |
| 20260904100038 | 70 | 123 | 0.0 | 0.0 | 0.02 | 0.02 | 0.02 | 79 | 1007.3 |
| 20260904095528 | 70 | 123 | 0.0 | 0.0 | 0.01 | 0.01 | 0.01 | 78 | 1007.3 |
| 20260904095022 | 71 | 122 | 0.0 | 0.0 | 0.01 | 0.01 | 0.01 | 76 | 1007.3 |
| 20260904094532 | 71 | 122 | 0.0 | 1.0 | 0.00 | 0.00 | 0.00 | 75 | 1007.2 |
| 20260904094129 | 71 | 122 | 0.0 | 1.0 | 0.00 | 0.00 | 0.00 | 74 | 1007.3 |
| 20260904093524 | 72 | 123 | 0.0 | 1.0 | 0.00 | 0.00 | 0.00 | 71 | 1007.3 |
| 20260904093050 | 72 | 160 | 0.0 | 3.0 | 0.00 | 0.00 | 0.00 | 70 | 1007.2 |
| 20260904092533 | 73 | 103 | 0.0 | 5.0 | 0.00 | 0.00 | 0.00 | 68 | 1007.2 |
| 20260904092026 | 74 | 143 | 1.0 | 4.0 | 0.00 | 0.00 | 0.00 | 66 | 1007.2 |
| 20260904091522 | 75 | 312 | 1.0 | 4.0 | 0.00 | 0.00 | 0.00 | 65 | 1007.2 |
| 20260904091033 | 75 | 125 | 0.0 | 1.0 | 0.00 | 0.00 | 0.00 | 65 | 1007.2 |
| 20260904090528 | 75 | 198 | 0.0 | 2.0 | 0.00 | 0.00 | 0.00 | 66 | 1007.2 |
| 20260904090023 | 75 | 143 | 0.0 | 2.0 | 0.00 | 0.00 | 0.00 | 65 | 1007.3 |
| 20260904085536 | 75 | 114 | 0.0 | 2.0 | 0.00 | 0.00 | 0.00 | 64 | 1007.3 |
| 20260904085034 | 75 | 104 | 0.0 | 3.0 | 0.00 | 0.00 | 0.00 | 64 | 1007.3 |
| 20260904084526 | 75 | 86 | 0.0 | 4.0 | 0.00 | 0.00 | 0.00 | 63 | 1007.5 |
| 20260904084041 | 76 | 143 | 1.0 | 6.0 | 0.00 | 0.00 | 0.00 | 62 | 1007.5 |
| 20260904083532 | 76 | 194 | 1.0 | 4.0 | 0.00 | 0.00 | 0.00 | 61 | 1007.4 |
| 20260904083027 | 76 | 198 | 1.0 | 3.0 | 0.00 | 0.00 | 0.00 | 60 | 1007.2 |
| 20260904082537 | 76 | 166 | 0.0 | 3.0 | 0.00 | 0.00 | 0.00 | 60 | 1007.2 |
| 20260904082033 | 76 | 140 | 0.0 | 4.0 | 0.00 | 0.00 | 0.00 | 59 | 1007.3 |
| 20260904081529 | 77 | 173 | 0.0 | 6.0 | 0.00 | 0.00 | 0.00 | 58 | 1007.3 |
| 20260904081045 | 77 | 112 | 2.0 | 7.0 | 0.00 | 0.00 | 0.00 | 57 | 1007.4 |
| 20260904080528 | 77 | 284 | 1.0 | 9.0 | 0.00 | 0.00 | 0.00 | 56 | 1007.4 |
| 20260904080041 | 77 | 149 | 3.0 | 10.0 | 0.00 | 0.00 | 0.00 | 55 | 1007.3 |
| 20260904075533 | 77 | 166 | 0.0 | 3.0 | 0.00 | 0.00 | 0.00 | 55 | 1007.3 |
| 20260904075028 | 78 | 252 | 0.0 | 5.0 | 0.00 | 0.00 | 0.00 | 54 | 1007.0 |
| 20260904074523 | 78 | 123 | 1.0 | 7.0 | 0.00 | 0.00 | 0.00 | 53 | 1007.1 |
| 20260904074036 | 78 | 62 | 1.0 | 7.0 | 0.00 | 0.00 | 0.00 | 53 | 1006.9 |
| 20260904073530 | 78 | 71 | 0.0 | 7.0 | 0.00 | 0.00 | 0.00 | 54 | 1006.5 |
| 20260904073025 | 78 | 280 | 2.0 | 9.0 | 0.00 | 0.00 | 0.00 | 56 | 1006.3 |
| 20260904072537 | 78 | 217 | 2.0 | 9.0 | 0.00 | 0.00 | 0.00 | 57 | 1006.2 |
| 20260904072031 | 78 | 252 | 1.0 | 14.0 | 0.00 | 0.00 | 0.00 | 57 | 1006.1 |
| 20260904071526 | 78 | 162 | 3.0 | 14.0 | 0.00 | 0.00 | 0.00 | 57 | 1006.0 |
| 20260904071021 | 78 | 57 | 2.0 | 11.0 | 0.00 | 0.00 | 0.00 | 58 | 1005.9 |
| 20260904070533 | 79 | 212 | 2.0 | 12.0 | 0.00 | 0.00 | 0.00 | 57 | 1005.9 |
| 20260904070042 | 79 | 75 | 1.0 | 8.0 | 0.00 | 0.00 | 0.00 | 56 | 1005.7 |
| 20260904065524 | 80 | 186 | 2.0 | 9.0 | 0.00 | 0.00 | 0.00 | 54 | 1005.6 |
| 20260904065034 | 80 | 137 | 1.0 | 9.0 | 0.00 | 0.00 | 0.00 | 52 | 1005.6 |
| 20260904064538 | 80 | 326 | 0.0 | 10.0 | 0.00 | 0.00 | 0.00 | 51 | 1005.6 |
| 20260904064025 | 80 | 153 | 1.0 | 10.0 | 0.00 | 0.00 | 0.00 | 51 | 1005.5 |
| 20260904063522 | 79 | 201 | 1.0 | 4.0 | 0.00 | 0.00 | 0.00 | 52 | 1005.6 |
| 20260904063037 | 78 | 174 | 0.0 | 4.0 | 0.00 | 0.00 | 0.00 | 51 | 1005.7 |
| 20260904062530 | 78 | 88 | 0.0 | 2.0 | 0.00 | 0.00 | 0.00 | 51 | 1005.7 |
| 20260904062024 | 78 | 326 | 0.0 | 3.0 | 0.00 | 0.00 | 0.00 | 51 | 1005.7 |
| 20260904061546 | 79 | 121 | 0.0 | 3.0 | 0.00 | 0.00 | 0.00 | 49 | 1005.7 |
| 20260904061032 | 79 | 75 | 0.0 | 1.0 | 0.00 | 0.00 | 0.00 | 48 | 1005.7 |
| 20260904060524 | 80 | 75 | 0.0 | 1.0 | 0.00 | 0.00 | 0.00 | 48 | 1005.5 |
| 20260904060037 | 80 | 75 | 0.0 | 1.0 | 0.00 | 0.00 | 0.00 | 46 | 1005.4 |
| 20260904055530 | 80 | 75 | 0.0 | 1.0 | 0.00 | 0.00 | 0.00 | 46 | 1005.5 |
| 20260904055025 | 79 | 95 | 0.0 | 1.0 | 0.00 | 0.00 | 0.00 | 47 | 1005.4 |
| 20260904054537 | 78 | 96 | 0.0 | 1.0 | 0.00 | 0.00 | 0.00 | 49 | 1005.4 |
| 20260904054031 | 77 | 38 | 0.0 | 1.0 | 0.00 | 0.00 | 0.00 | 52 | 1005.3 |
| 20260904053530 | 76 | 38 | 0.0 | 1.0 | 0.00 | 0.00 | 0.00 | 53 | 1005.3 |
| 20260904053037 | 77 | 75 | 0.0 | 1.0 | 0.00 | 0.00 | 0.00 | 54 | 1005.2 |
| 20260904052619 | 77 | 75 | 0.0 | 0.0 | 0.00 | 0.00 | 0.00 | 53 | 1005.1 |
| 20260904052133 | 77 | 75 | 0.0 | 0.0 | 0.00 | 0.00 | 0.00 | 52 | 1004.9 |
| 20260904051632 | 77 | 75 | 0.0 | 1.0 | 0.00 | 0.00 | 0.00 | 51 | 1004.9 |
| 20260904051127 | 77 | 75 | 0.0 | 1.0 | 0.00 | 0.00 | 0.00 | 51 | 1005.0 |
| 20260904050636 | 78 | 75 | 0.0 | 0.0 | 0.00 | 0.00 | 0.00 | 51 | 1005.0 |
| 20260904050130 | 78 | 75 | 0.0 | 0.0 | 0.00 | 0.00 | 0.00 | 50 | 1004.9 |
| 20260904045626 | 78 | 75 | 0.0 | 0.0 | 0.00 | 0.00 | 0.00 | 50 | 1005.0 |
| 20260904045122 | 79 | 75 | 0.0 | 1.0 | 0.00 | 0.00 | 0.00 | 49 | 1005.1 |
| 20260904044633 | 79 | 75 | 0.0 | 1.0 | 0.00 | 0.00 | 0.00 | 48 | 1005.1 |
| 20260904044129 | 79 | 75 | 0.0 | 1.0 | 0.00 | 0.00 | 0.00 | 47 | 1005.1 |
| 20260904043623 | 79 | 75 | 0.0 | 2.0 | 0.00 | 0.00 | 0.00 | 47 | 1005.1 |
| 20260904043134 | 79 | 71 | 0.0 | 0.0 | 0.00 | 0.00 | 0.00 | 48 | 1005.0 |
| 20260904042626 | 79 | 70 | 0.0 | 0.0 | 0.00 | 0.00 | 0.00 | 48 | 1005.0 |
| 20260904042136 | 79 | 71 | 0.0 | 0.0 | 0.00 | 0.00 | 0.00 | 48 | 1005.0 |
| 20260904041630 | 79 | 71 | 0.0 | 1.0 | 0.00 | 0.00 | 0.00 | 47 | 1005.0 |
| 20260904041127 | 79 | 71 | 0.0 | 1.0 | 0.00 | 0.00 | 0.00 | 48 | 1005.0 |
| 20260904040635 | 80 | 72 | 0.0 | 1.0 | 0.00 | 0.00 | 0.00 | 48 | 1005.0 |
| 20260904040131 | 79 | 72 | 0.0 | 1.0 | 0.00 | 0.00 | 0.00 | 48 | 1004.9 |
| 20260904035625 | 79 | 70 | 0.0 | 0.0 | 0.00 | 0.00 | 0.00 | 48 | 1004.9 |
| 20260904035134 | 79 | 69 | 0.0 | 0.0 | 0.00 | 0.00 | 0.00 | 47 | 1004.8 |
| 20260904034629 | 80 | 71 | 0.0 | 1.0 | 0.00 | 0.00 | 0.00 | 48 | 1004.7 |